Emerald Leader — C6WP4 — position and weather

sailwx.info

Track history (hours):
 
Tides and Currents Weather Stations Pressure Air Temp Water Temp Dewpoint Dewpoint Depression Visibility Wind Speed Wind Dir Waves Ship Positions

Emerald Leader

Last reported at 2014-Oct-25 05:34 UTC. Time now 2014-Oct-25 06:19 UTC.
Position N 43°35' E 010°18'.

Length 176 m; draft 8.4 m.

Type: Cargo ship. MMSI: 308688000.

Date/timePositionNaut miles runAvg speedWind from/ knotsBaromVisibWave heightAir tempDewpointWater temp
2014-Oct-25 05:34N 43°35' E 010°18'0 0.0
2014-Oct-25 04:31N 43°35' E 010°18'0 0.0
2014-Oct-25 03:34N 43°35' E 010°18'0 0.0
2014-Oct-25 02:34N 43°35' E 010°18'0 0.0
2014-Oct-25 01:31N 43°35' E 010°18'0 0.0
2014-Oct-25 00:34N 43°35' E 010°18'0 0.0
2014-Oct-24 23:34N 43°35' E 010°18'0 0.0
2014-Oct-24 22:34N 43°35' E 010°18'0 0.0
2014-Oct-24 21:34N 43°35' E 010°18'0 0.0
2014-Oct-24 20:31N 43°35' E 010°18'0 0.0
2014-Oct-24 19:28N 43°35' E 010°18'0 0.0
2014-Oct-24 18:31N 43°35' E 010°18'0 0.0
2014-Oct-24 17:34N 43°35' E 010°18'0 0.0
2014-Oct-24 16:34N 43°35' E 010°18'6 6.1
2014-Oct-24 15:33N 43°30' E 010°14'1413.7
2014-Oct-24 14:34N 43°20' E 010°01'1717.1
2014-Oct-24 13:34N 43°15' E 009°39'1717.4
2014-Oct-24 12:33N 43°10' E 009°15'1717.0
2014-Oct-24 11:34N 43°06' E 008°53'2317.3
2014-Oct-24 10:13N 42°58' E 008°23'1617.3
2014-Oct-24 09:19N 42°52' E 008°03'1417.9
2014-Oct-24 08:32N 42°46' E 007°46'1918.5
2014-Oct-24 07:30N 42°40' E 007°22'15317.0
2014-Oct-23 22:31N 41°44' E 004°10'1915.4
2014-Oct-23 21:19N 41°37' E 003°47'1716.1
2014-Oct-23 20:16N 41°31' E 003°26'1416.2
2014-Oct-23 19:25N 41°26' E 003°09'1617.1
2014-Oct-23 18:31N 41°20' E 002°50'1717.4
2014-Oct-23 17:30N 41°14' E 002°28'1616.0
2014-Oct-23 16:29N 41°08' E 002°08'1514.0
2014-Oct-23 15:27N 41°05' E 001°49'126 5.8
2014-Oct-22 17:31N 39°38' W 000°11'2 0.3
2014-Oct-22 11:22N 39°38' W 000°13'0 0.0
2014-Oct-22 10:28N 39°38' W 000°13'3 2.7
2014-Oct-22 09:26N 39°36' W 000°11'5 6.2
2014-Oct-22 08:34N 39°32' W 000°07'9512.9
2014-Oct-22 01:09N 37°57' W 000°09'1115.7
2014-Oct-22 00:28N 37°47' W 000°17'1414.8
2014-Oct-21 23:33N 37°36' W 000°26'1514.6
2014-Oct-21 22:33N 37°26' W 000°39'1514.9
2014-Oct-21 21:32N 37°15' W 000°53'1515.2
2014-Oct-21 20:33N 37°05' W 001°07'20615.5
2014-Oct-21 07:12N 36°01' W 005°11'1116.7
2014-Oct-21 06:33N 35°58' W 005°24'8615.8
2014-Oct-21 01:05N 36°05' W 007°10'1215.4
2014-Oct-21 00:20N 36°08' W 007°24'2815.7
2014-Oct-20 22:33N 36°16' W 007°57'3415.7
2014-Oct-20 20:24N 36°25' W 008°37'1715.7
2014-Oct-20 19:19N 36°30' W 008°58'2815.2
2014-Oct-20 17:27N 36°44' W 009°29'4515.5
2014-Oct-20 14:33N 37°27' W 009°44'1615.7
2014-Oct-20 13:33N 37°42' W 009°48'1615.6
2014-Oct-20 12:33N 37°57' W 009°51'1615.6
2014-Oct-20 11:33N 38°13' W 009°56'1515.4
2014-Oct-20 10:33N 38°28' W 010°01'1615.6
2014-Oct-20 09:33N 38°43' W 010°06'1615.7
2014-Oct-20 08:33N 38°58' W 010°05'1615.6
2014-Oct-20 07:33N 39°14' W 010°03'  
2014-Oct-17 15:20N 50°37' W 005°32'1113.6
2014-Oct-17 14:33N 50°44' W 005°20'89 2.4
2014-Oct-16 01:21N 51°22' W 003°12'1113.4
2014-Oct-16 00:33N 51°27' W 002°57'9 8.7
2014-Oct-15 23:31N 51°30' W 002°44'0 0.5
2014-Oct-15 22:31N 51°30' W 002°43'0 0.0
2014-Oct-15 21:31N 51°30' W 002°43'0 0.0
2014-Oct-15 20:31N 51°30' W 002°43'0 0.0
2014-Oct-15 19:31N 51°30' W 002°43'0 0.0
2014-Oct-15 18:31N 51°30' W 002°43'0 0.0
2014-Oct-15 17:31N 51°30' W 002°43'0 0.0
2014-Oct-15 16:31N 51°30' W 002°43'0 0.0
2014-Oct-15 15:31N 51°30' W 002°43'0 0.0
2014-Oct-15 14:31N 51°30' W 002°43'0 0.0
2014-Oct-15 13:31N 51°30' W 002°43'0 0.0
2014-Oct-15 12:31N 51°30' W 002°43'0 0.0
2014-Oct-15 11:31N 51°30' W 002°43'0 0.0
2014-Oct-15 10:31N 51°30' W 002°43'0 0.0
2014-Oct-15 09:31N 51°30' W 002°43'0 0.0
2014-Oct-15 08:31N 51°30' W 002°43'0 0.0
2014-Oct-15 07:31N 51°30' W 002°43'0 0.0
2014-Oct-15 06:31N 51°30' W 002°43'  
Track history (hours):
 
Tides and Currents Weather Stations Pressure Air Temp Water Temp Dewpoint Dewpoint Depression Visibility Wind Speed Wind Dir Waves Ship Positions

Emerald Leader

Last reported at 2014-Oct-25 05:34 UTC. Time now 2014-Oct-25 06:19 UTC.
Position N 43°35' E 010°18'.

Length 176 m; draft 8.4 m.

Type: Cargo ship. MMSI: 308688000.

Date/timePositionNaut miles runAvg speedWind from/ knotsBaromVisibWave heightAir tempDewpointWater temp
2014-Oct-25 05:34N 43°35' E 010°18'0 0.0
2014-Oct-25 04:31N 43°35' E 010°18'0 0.0
2014-Oct-25 03:34N 43°35' E 010°18'0 0.0
2014-Oct-25 02:34N 43°35' E 010°18'0 0.0
2014-Oct-25 01:31N 43°35' E 010°18'0 0.0
2014-Oct-25 00:34N 43°35' E 010°18'0 0.0
2014-Oct-24 23:34N 43°35' E 010°18'0 0.0
2014-Oct-24 22:34N 43°35' E 010°18'0 0.0
2014-Oct-24 21:34N 43°35' E 010°18'0 0.0
2014-Oct-24 20:31N 43°35' E 010°18'0 0.0
2014-Oct-24 19:28N 43°35' E 010°18'0 0.0
2014-Oct-24 18:31N 43°35' E 010°18'0 0.0
2014-Oct-24 17:34N 43°35' E 010°18'0 0.0
2014-Oct-24 16:34N 43°35' E 010°18'6 6.1
2014-Oct-24 15:33N 43°30' E 010°14'1413.7
2014-Oct-24 14:34N 43°20' E 010°01'1717.1
2014-Oct-24 13:34N 43°15' E 009°39'1717.4
2014-Oct-24 12:33N 43°10' E 009°15'1717.0
2014-Oct-24 11:34N 43°06' E 008°53'2317.3
2014-Oct-24 10:13N 42°58' E 008°23'1617.3
2014-Oct-24 09:19N 42°52' E 008°03'1417.9
2014-Oct-24 08:32N 42°46' E 007°46'1918.5
2014-Oct-24 07:30N 42°40' E 007°22'15317.0
2014-Oct-23 22:31N 41°44' E 004°10'1915.4
2014-Oct-23 21:19N 41°37' E 003°47'1716.1
2014-Oct-23 20:16N 41°31' E 003°26'1416.2
2014-Oct-23 19:25N 41°26' E 003°09'1617.1
2014-Oct-23 18:31N 41°20' E 002°50'1717.4
2014-Oct-23 17:30N 41°14' E 002°28'1616.0
2014-Oct-23 16:29N 41°08' E 002°08'1514.0
2014-Oct-23 15:27N 41°05' E 001°49'126 5.8
2014-Oct-22 17:31N 39°38' W 000°11'2 0.3
2014-Oct-22 11:22N 39°38' W 000°13'0 0.0
2014-Oct-22 10:28N 39°38' W 000°13'3 2.7
2014-Oct-22 09:26N 39°36' W 000°11'5 6.2
2014-Oct-22 08:34N 39°32' W 000°07'9512.9
2014-Oct-22 01:09N 37°57' W 000°09'1115.7
2014-Oct-22 00:28N 37°47' W 000°17'1414.8
2014-Oct-21 23:33N 37°36' W 000°26'1514.6
2014-Oct-21 22:33N 37°26' W 000°39'1514.9
2014-Oct-21 21:32N 37°15' W 000°53'1515.2
2014-Oct-21 20:33N 37°05' W 001°07'20615.5
2014-Oct-21 07:12N 36°01' W 005°11'1116.7
2014-Oct-21 06:33N 35°58' W 005°24'8615.8
2014-Oct-21 01:05N 36°05' W 007°10'1215.4
2014-Oct-21 00:20N 36°08' W 007°24'2815.7
2014-Oct-20 22:33N 36°16' W 007°57'3415.7
2014-Oct-20 20:24N 36°25' W 008°37'1715.7
2014-Oct-20 19:19N 36°30' W 008°58'2815.2
2014-Oct-20 17:27N 36°44' W 009°29'4515.5
2014-Oct-20 14:33N 37°27' W 009°44'1615.7
2014-Oct-20 13:33N 37°42' W 009°48'1615.6
2014-Oct-20 12:33N 37°57' W 009°51'1615.6
2014-Oct-20 11:33N 38°13' W 009°56'1515.4
2014-Oct-20 10:33N 38°28' W 010°01'1615.6
2014-Oct-20 09:33N 38°43' W 010°06'1615.7
2014-Oct-20 08:33N 38°58' W 010°05'1615.6
2014-Oct-20 07:33N 39°14' W 010°03'  
2014-Oct-17 15:20N 50°37' W 005°32'1113.6
2014-Oct-17 14:33N 50°44' W 005°20'89 2.4
2014-Oct-16 01:21N 51°22' W 003°12'1113.4
2014-Oct-16 00:33N 51°27' W 002°57'9 8.7
2014-Oct-15 23:31N 51°30' W 002°44'0 0.5
2014-Oct-15 22:31N 51°30' W 002°43'0 0.0
2014-Oct-15 21:31N 51°30' W 002°43'0 0.0
2014-Oct-15 20:31N 51°30' W 002°43'0 0.0
2014-Oct-15 19:31N 51°30' W 002°43'0 0.0
2014-Oct-15 18:31N 51°30' W 002°43'0 0.0
2014-Oct-15 17:31N 51°30' W 002°43'0 0.0
2014-Oct-15 16:31N 51°30' W 002°43'0 0.0
2014-Oct-15 15:31N 51°30' W 002°43'0 0.0
2014-Oct-15 14:31N 51°30' W 002°43'0 0.0
2014-Oct-15 13:31N 51°30' W 002°43'0 0.0
2014-Oct-15 12:31N 51°30' W 002°43'0 0.0
2014-Oct-15 11:31N 51°30' W 002°43'0 0.0
2014-Oct-15 10:31N 51°30' W 002°43'0 0.0
2014-Oct-15 09:31N 51°30' W 002°43'0 0.0
2014-Oct-15 08:31N 51°30' W 002°43'0 0.0
2014-Oct-15 07:31N 51°30' W 002°43'0 0.0
2014-Oct-15 06:31N 51°30' W 002°43'  

Dump ship's entire track history